Tracking 20942 objects as of 12-Jul-2020
HD Live streaming from Space Station
objects crossing your sky now

MOLNIYA 1-S

Track MOLNIYA 1-S now!
MOLNIYA 1-S is classified as:


NORAD ID: 7392
Int'l Code: 1974-060A
Perigee: 35,770.2 km
Apogee: 35,850.1 km
Inclination: 6.8 °
Period: 1,436.9 minutes
Semi major axis: 42181 km
RCS: 1.5848 m2 (large)
Launch date: July 29, 1974
Source: Commonwealth of Independent States (former USSR) (CIS)
Launch site: TYURATAM MISSILE AND SPACE COMPLEX (TTMTR)
aabbcc
Your satellite tracking list
Your tracking list is empty




NASA's NSSDC Master Catalog

Two Line Element Set (TLE):
1  7392U 74060A   20193.82897535 +.00000090 +00000-0 +00000-0 0  9999
2  7392 006.8272 293.1556 0009478 184.9351 166.2427 01.00213291112447
Source of the keplerian elements: AFSPC